Location: Luxembourg
(49.6117°N, 6.1300°E)
Time: 10:42:27
(UTC+01:00)

Envisat - Visible Passes

Search period start: 19 January 2018 00:00
Search period end: 29 January 2018 00:00
Orbit: 764 x 766 km, 98.2° (Epoch: 18 January)

Date Brightness Start Highest point End Pass type
(mag) Time Alt. Az. Time Alt. Az. Time Alt. Az.
19 Jan 4.0 18:45:14 23° ENE 18:45:32 23° ENE 18:49:28 10° N visible
19 Jan 3.8 20:25:25 46° NW 20:25:25 46° NW 20:29:14 10° NNW visible
20 Jan 4.7 18:07:49 11° ENE 18:09:19 13° NE 18:11:31 10° NNE visible
20 Jan 3.0 19:48:01 62° NNE 19:48:01 62° NNE 19:52:31 10° N visible
20 Jan 5.5 21:28:12 17° WNW 21:28:12 17° WNW 21:30:32 10° NW visible
21 Jan 5.8 07:47:58 10° NE 07:51:16 17° E 07:54:33 10° SE visible
21 Jan 3.5 19:10:36 35° ENE 19:10:54 35° ENE 19:15:29 10° N visible
21 Jan 4.5 20:50:48 34° WNW 20:50:48 34° WNW 20:54:37 10° NNW visible
22 Jan 4.3 18:33:11 18° ENE 18:34:32 20° ENE 18:38:06 10° NNE visible
22 Jan 3.1 20:13:23 71° WNW 20:13:23 71° WNW 20:18:08 10° NNW visible
22 Jan 6.0 21:53:34 11° WNW 21:53:34 11° WNW 21:54:25 10° WNW visible
23 Jan 4.8 17:57:14 10° ENE 17:58:22 11° NE 17:59:29 10° NE visible
23 Jan 3.0 19:35:58 54° E 19:36:20 56° ENE 19:41:19 10° N visible
23 Jan 5.1 21:16:09 23° W 21:16:09 23° W 21:19:44 10° NW visible
24 Jan 6.0 07:37:24 10° NE 07:40:00 14° E 07:42:34 10° ESE visible
24 Jan 3.8 18:58:32 26° E 18:59:51 29° ENE 19:04:13 10° N visible
24 Jan 3.9 20:38:43 45° W 20:38:43 45° W 20:43:35 10° NNW visible
25 Jan 4.5 18:21:06 12° E 18:23:33 16° NE 18:26:38 10° NNE visible
25 Jan 2.9 20:01:17 71° SSE 20:01:52 89° ESE 20:07:00 10° NNW visible
25 Jan 5.7 21:41:28 14° W 21:41:38 14° W 21:44:16 10° NW visible
26 Jan 3.2 19:23:50 36° ESE 19:25:15 46° ENE 19:30:06 10° N visible
26 Jan 4.8 21:04:01 28° WSW 21:04:28 28° W 21:08:50 10° NW visible
27 Jan 6.3 07:27:19 10° ENE 07:28:41 11° E 07:30:04 10° E visible
27 Jan 4.0 18:46:24 17° E 18:48:49 25° ENE 18:52:54 10° N visible
27 Jan 3.5 20:26:34 48° SW 20:27:30 56° W 20:32:32 10° NNW visible
28 Jan 4.6 18:10:05 10° E 18:12:34 14° NE 18:15:05 10° NNE visible
28 Jan 2.8 19:49:07 43° SE 19:50:45 74° ENE 19:55:51 10° N visible
28 Jan 5.5 21:29:17 16° WSW 21:30:21 17° W 21:33:41 10° NW visible
